KOR001 ZGHA-ZBAD

Flight info

Callsign KOR001
Flight time N/A
Altitude 35100
Route GUD9X GUDRO W56 ORODO/K0813S1100 W62 KARVU/K0806S1070 W62 IGDID/K0817S1100 W62 TEKIL G212 BELAX BELAX6M
Aircraft A320/M-SDE3FGHIRWY/LB1

Departure

Time 2026-04-17 06:51
Airport Changsha Huanghua International Airport (ZGHA)

Arrival

Time N/A
Airport Beijing Daxing International Airport (ZBAD)
Time Latitude Longitude Altitude Speed Heading
2026-04-17 06:36 28.18514 113.21710 214 ft 0 kts 177°
2026-04-17 06:45 28.18502 113.21711 222 ft 2 kts 357°
2026-04-17 06:46 28.18521 113.21710 219 ft 3 kts 357°
2026-04-17 06:46 28.18541 113.21709 217 ft 3 kts 357°
2026-04-17 06:46 28.18544 113.21709 216 ft 1 kts 357°
2026-04-17 06:48 28.18577 113.21712 213 ft 10 kts 24°
2026-04-17 06:48 28.18583 113.21781 213 ft 11 kts 91°
2026-04-17 06:49 28.18504 113.21815 217 ft 15 kts 176°
2026-04-17 06:49 28.18389 113.21822 213 ft 18 kts 176°
2026-04-17 06:49 28.18232 113.21832 218 ft 25 kts 176°
2026-04-17 06:49 28.18059 113.21843 214 ft 25 kts 177°
2026-04-17 06:50 28.17886 113.21852 214 ft 23 kts 176°
2026-04-17 06:50 28.17756 113.21880 216 ft 14 kts 133°
2026-04-17 06:50 28.17744 113.21989 216 ft 14 kts 82°
2026-04-17 06:50 28.17819 113.22044 219 ft 15 kts 357°
2026-04-17 06:51 28.18022 113.22031 221 ft 63 kts 356°
2026-04-17 06:51 28.18720 113.21988 220 ft 133 kts 356°
2026-04-17 06:51 28.19697 113.21917 798 ft 137 kts 355°
2026-04-17 06:51 28.20651 113.21837 1525 ft 143 kts 355°
2026-04-17 06:52 28.21670 113.21734 2288 ft 143 kts 354°
2026-04-17 06:52 28.22654 113.21603 3067 ft 146 kts 353°
2026-04-17 06:52 28.23691 113.21510 3747 ft 149 kts 358°
2026-04-17 06:52 28.24706 113.21455 4522 ft 146 kts 357°
2026-04-17 06:53 28.25758 113.21396 5094 ft 158 kts 358°
2026-04-17 06:53 28.26927 113.21344 5413 ft 191 kts 359°
2026-04-17 06:53 28.28357 113.21647 5613 ft 230 kts 32°
2026-04-17 06:53 28.29420 113.22973 6597 ft 231 kts 60°
2026-04-17 06:54 28.30216 113.24567 7508 ft 235 kts 57°
2026-04-17 06:54 28.31098 113.26157 8390 ft 241 kts 55°
2026-04-17 06:54 28.32032 113.27759 9274 ft 247 kts 55°
2026-04-17 06:54 28.33004 113.29395 10134 ft 253 kts 54°
2026-04-17 06:55 28.34011 113.31085 10753 ft 269 kts 54°
2026-04-17 06:55 28.35105 113.32924 11175 ft 293 kts 55°
2026-04-17 06:55 28.36291 113.34923 11599 ft 318 kts 55°
2026-04-17 06:55 28.37572 113.37082 12002 ft 342 kts 55°
2026-04-17 06:56 28.38939 113.39390 12554 ft 359 kts 55°
2026-04-17 06:56 28.40347 113.41776 13381 ft 367 kts 55°
2026-04-17 06:56 28.41701 113.43981 14142 ft 372 kts 49°
2026-04-17 06:56 28.43572 113.46027 14889 ft 376 kts 34°
2026-04-17 06:57 28.45869 113.47452 15666 ft 378 kts 17°
2026-04-17 06:57 28.48431 113.48079 16457 ft 379 kts
2026-04-17 06:57 28.51077 113.48277 17260 ft 383 kts
2026-04-17 06:57 28.53753 113.48455 18049 ft 388 kts 360°
2026-04-17 06:58 28.56466 113.48632 18759 ft 393 kts 360°
2026-04-17 06:58 28.59206 113.48817 19463 ft 397 kts 360°
2026-04-17 06:58 28.61974 113.49014 20177 ft 400 kts 360°
2026-04-17 06:58 28.64770 113.49218 20875 ft 404 kts 359°
2026-04-17 06:59 28.67629 113.49428 21573 ft 408 kts 359°
2026-04-17 06:59 28.70475 113.49635 22264 ft 412 kts 359°
2026-04-17 06:59 28.73353 113.49840 22947 ft 416 kts 359°
2026-04-17 06:59 28.76255 113.50046 23599 ft 420 kts 358°
2026-04-17 07:00 28.79190 113.50252 24116 ft 425 kts 358°
2026-04-17 07:00 28.82160 113.50461 24596 ft 430 kts 358°
2026-04-17 07:00 28.85159 113.50673 25045 ft 434 kts 358°
2026-04-17 07:00 28.88188 113.50889 25459 ft 439 kts 357°
2026-04-17 07:01 28.91249 113.51109 25842 ft 443 kts 357°
2026-04-17 07:01 28.94339 113.51332 26239 ft 446 kts 357°
2026-04-17 07:01 28.97449 113.51560 26631 ft 450 kts 357°
2026-04-17 07:01 29.00589 113.51791 26904 ft 456 kts 356°
2026-04-17 07:02 29.03782 113.52019 27095 ft 463 kts 356°
2026-04-17 07:02 29.07015 113.52248 27358 ft 468 kts 356°
2026-04-17 07:02 29.10284 113.52481 27611 ft 473 kts 356°
2026-04-17 07:02 29.13585 113.52719 27871 ft 477 kts 356°
2026-04-17 07:03 29.16905 113.52961 28138 ft 480 kts 356°
2026-04-17 07:03 29.20242 113.53206 28393 ft 483 kts 356°
2026-04-17 07:03 29.23605 113.53452 28654 ft 485 kts 356°
2026-04-17 07:03 29.26985 113.53700 28922 ft 488 kts 356°
2026-04-17 07:04 29.30382 113.53955 29194 ft 491 kts 356°
2026-04-17 07:04 29.33793 113.54235 29458 ft 493 kts 357°
2026-04-17 07:04 29.37223 113.54535 29740 ft 495 kts 357°